Weather History for KNUW - December, 2013

Change the Weather History Date:

Wednesday, December 11, 2013

  Actual Average Record
Temperature  
Mean Temperature 38 °F -  
Max Temperature 43 °F 45 °F 57 °F (2014)
Min Temperature 32 °F 36 °F 26 °F (2000)
Degree Days  
Heating Degree Days 28    
Moisture  
Dew Point 29 °F    
Average Humidity 74    
Maximum Humidity 85    
Minimum Humidity 58    
Precipitation  
Precipitation 0.00 in - - ()
Sea Level Pressure  
Sea Level Pressure 30.32 in    
Wind  
Wind Speed 4 mph (ESE)    
Max Wind Speed 8 mph    
Max Gust Speed -    
Visibility 10 miles    
Events      
Averages and records for this station are not official NWS values.
T = Trace of Precipitation, MM = Missing Value Source: NWS Daily Summary

Daily Weather History Graph

Daily Weather History Graph

Search for Another Location

Airport or City:

Trip Planner

Search our weather history database for the weather conditions in past years. The results will help you decide how hot, cold, wet, or windy it might be!

Date:

Astronomy

Dec. 11, 2013 Rise Set
Actual Time 7:52 AM PST 4:15 PM PST
Civil Twilight 7:15 AM PST 4:52 PM PST
Nautical Twilight 6:35 AM PST 5:32 PM PST
Astronomical Twilight 5:57 AM PST 6:10 PM PST
Moon 1:12 PM PST (12/11) 1:57 AM PST (12/11)
Length of Visible Light 9h 36m
Length of Day
8h 23m
Waxing Gibbous, 72% of the Moon is Illuminated
Dec 11
Waxing Gibbous
Dec 17
Full
Dec 25
Last Quarter
Jan 1
New
Jan 7
First Quarter

Hourly Weather History & Observations

Time (PST) Temp. Windchill Dew Point Humidity Pressure Visibility Wind Dir Wind Speed Gust Speed Precip Events Conditions
12:56 AM 39.0 °F 36.8 °F 30.0 °F 70% 30.45 in 10.0 mi East 3.5 mph - N/A   Mostly Cloudy
1:56 AM 37.0 °F 34.5 °F 30.0 °F 76% 30.44 in 10.0 mi East 3.5 mph - N/A   Mostly Cloudy
2:56 AM 36.0 °F 30.3 °F 30.0 °F 79% 30.42 in 10.0 mi East 6.9 mph - N/A   Mostly Cloudy
3:56 AM 34.0 °F 28.0 °F 28.9 °F 82% 30.40 in 10.0 mi East 6.9 mph - N/A   Scattered Clouds
4:56 AM 34.0 °F 29.8 °F 28.9 °F 82% 30.38 in 10.0 mi East 4.6 mph - N/A   Partly Cloudy
5:56 AM 33.1 °F 28.7 °F 28.0 °F 82% 30.38 in 10.0 mi East 4.6 mph - N/A   Mostly Cloudy
6:56 AM 36.0 °F 33.3 °F 28.9 °F 76% 30.38 in 10.0 mi East 3.5 mph - N/A   Mostly Cloudy
7:56 AM 35.1 °F 31.0 °F 28.9 °F 78% 30.38 in 10.0 mi East 4.6 mph - N/A   Overcast
8:56 AM 36.0 °F - 28.9 °F 76% 30.38 in 10.0 mi Calm Calm - N/A   Mostly Cloudy
9:56 AM 39.0 °F 35.7 °F 32.0 °F 76% 30.38 in 10.0 mi SE 4.6 mph - N/A   Overcast
10:56 AM 41.0 °F 39.0 °F 30.0 °F 65% 30.37 in 10.0 mi ESE 3.5 mph - N/A   Overcast
11:56 AM 42.1 °F 37.7 °F 28.9 °F 60% 30.35 in 10.0 mi ESE 6.9 mph - N/A   Overcast
12:56 PM 42.1 °F 39.2 °F 28.9 °F 60% 30.32 in 10.0 mi East 4.6 mph - N/A   Overcast
1:56 PM 43.0 °F 40.3 °F 28.9 °F 58% 30.30 in 10.0 mi ESE 4.6 mph - N/A   Mostly Cloudy
2:56 PM 41.0 °F 37.1 °F 30.0 °F 65% 30.29 in 10.0 mi ESE 5.8 mph - N/A   Overcast
3:56 PM 39.0 °F 35.7 °F 30.0 °F 70% 30.28 in 10.0 mi East 4.6 mph - N/A   Overcast
4:56 PM 37.9 °F 34.4 °F 28.9 °F 70% 30.27 in 10.0 mi ESE 4.6 mph - N/A   Mostly Cloudy
5:56 PM 36.0 °F 33.3 °F 28.9 °F 76% 30.25 in 10.0 mi SSE 3.5 mph - N/A   Mostly Cloudy
6:56 PM 36.0 °F - 28.0 °F 73% 30.25 in 10.0 mi Calm Calm - N/A   Mostly Cloudy
7:56 PM 36.0 °F 33.3 °F 28.9 °F 76% 30.23 in 10.0 mi ESE 3.5 mph - N/A   Mostly Cloudy
8:56 PM 34.0 °F - 28.0 °F 79% 30.23 in 10.0 mi Calm Calm - N/A   Mostly Cloudy
9:56 PM 33.1 °F 30.0 °F 28.0 °F 82% 30.22 in 10.0 mi SSE 3.5 mph - N/A   Mostly Cloudy
10:56 PM 32.0 °F 28.7 °F 28.0 °F 85% 30.21 in 10.0 mi East 3.5 mph - N/A   Mostly Cloudy
11:56 PM 33.1 °F 26.1 °F 28.0 °F 82% 30.18 in 10.0 mi ESE 8.1 mph - N/A   Mostly Cloudy